Regional Weather Roundup
Issued by NWS New Orleans/Baton Rouge, LA

Home | Current Version | Previous Version | Text Only | Print | Product List | Glossary Off
Versions: 1 2 3 4 5 6 7 8 9 10 11 12 13 14 15 16 17 18 19 20 21 22 23 24 25 26 27 28 29 30 31 32 33 34 35 36 37 38 39 40 41 42 43 44 45 46 47 48 49 50

571
ASUS44 KLIX 040401
RWRLIX
NEW ORLEANS REGIONAL WEATHER ROUNDUP
NATIONAL WEATHER SERVICE NEW ORLEANS LA
1000 PM CST TUE MAR 03 2015

NOTE: "FAIR" INDICATES FEW OR NO CLOUDS BELOW 12,000 FEET WITH NO
      SIGNIFICANT WEATHER AND/OR OBSTRUCTIONS TO VISIBILITY.
      SKY/WX - SKY CONDITION AND SIGNIFICANT WEATHER.
      TMP - AIR TEMPERATURE.     DP    - DEWPOINT TEMPERATURE.
      RH  - RELATIVE HUMIDITY.   PRES  - PRESSURE.
      HI  - HEAT INDEX.          WCI   - WIND CHILL INDEX.

*  THESE STATIONS ARE NOT NWS OR FAA STATIONS AND ARE NOT UNDER
   NWS QUALITY CONTROL.

LAZ038-040-048-061>063-065>067-069-040500-
SOUTHEAST LOUISIANA

CITY           SKY/WX    TMP DP  RH WIND       PRES   REMARKS
N.O. AUDUBON     N/A     71  70  98 MISG        N/A
N.O. INTL ARPT PTCLDY    69  65  86 SE9       30.01S
N.O. LAKEFRONT PTCLDY    70  65  84 SE8       30.02S
SLIDELL        CLOUDY    68  67  96 S9        30.02S
BATON ROUGE    CLOUDY    68  67  96 E5        29.99R
BOOTHVILLE     FOG       64  64 100 E6        30.04S VSB 1/4
BELLE CHASSE   MOCLDY    69  66  90 SE7       30.01S
BOGALUSA*        N/A     69  65  86 S8        30.04S
GALLIANO*      MOCLDY    73  69  86 SE3       30.02S
NEW ROADS*     NOT AVBL
GONZALES*      NOT AVBL
HAMMOND*       NOT AVBL
HOUMA*         MOCLDY    70  68  95 SE7       30.00F FOG
PORT FOURCHON* PTCLDY    70  68  94 SE6       30.05S

$$

MSZ070-080>082-040500-
SOUTHERN MISSISSIPPI

CITY           SKY/WX    TMP DP  RH WIND       PRES   REMARKS
MCCOMB         CLOUDY    67  65  93 S7        30.01S
GULFPORT       CLOUDY    64  63  96 SE12      30.04S FOG
BILOXI         CLOUDY    67  67 100 SE9       30.04S
PASCAGOULA     CLOUDY    65  64  97 SE10      30.05F

$$

COASTAL OBSERVATIONS
LAKE AND NEARSHORE STATIONS

STATION/POSITION TIME  TEMP    WIND        PRES    WAVE
                       AIR SEA DIR/SP/G            HT/PER
                 (UTC) (F)     (DEG/KT/KT) (MB)    (FT/S)
PASCAGOULA       0319   64     120/  3/  7 1017.6
WAVELAND YACHT   0319   63 59  150/ 10/ 12 1016.9
GRAND ISLE       0319   68 64  140/  5/  5 1017.2
SOUTHWEST PASS   0319   64 47  160/ 12/ 15 1017.1
NEW CANAL        0319   69      CALM  /  2 1016.7
SHELL BEACH      0319   68 63  140/ 11/ 13 1016.8

OFFSHORE STATIONS

STATION/POSITION TIME  TEMP    WIND        PRES    WAVE
                       AIR SEA DIR/SP/G            HT/PER
                 (UTC) (F)     (DEG/KT/KT) (MB)    (FT/S)
64 S DAUPHIN ISL 0259   71 71  150/ 17/ 21 1018.0    4/ 4

$$




USA.gov is the U.S. government's official web portal to all federal, state and local government web resources and services.